User: anonymous   Login
Location: Asheville, NC
(35.6000°N, 82.5500°W)
Time: 23:08:45
(UTC-04:00)
Language:

UNISAT 6 - Orbit

View from above orbital plane
View from above orbital plane
View from above satellite
View from above satellite

Ground track
Ground track

The orbit data is extracted from the following two-line orbital elements,

1 40012U 14033C   18113.62873883 +.00000222 +00000-0 +40677-4 0  9991
2 40012 097.8162 351.8990 0059004 016.4663 343.8444 14.73797583206665
Epoch (UTC): 23 April 2018 15:05:23
Eccentricity: 0.0059004
inclination: 97.8162°
perigee height: 607 km
apogee height: 690 km
right ascension of ascending node: 351.8990°
argument of perigee: 16.4663°
revolutions per day: 14.73797583
mean anomaly at epoch: 343.8444°
orbit number at epoch: 20666

The dashed part of the orbit path shows where the satellite is in the earth's shadow,  

DLR